Regional Weather Roundup
Issued by NWS Wakefield, VA

Home | Current Version | Previous Version | Graphics & Text | Print | Product List | Glossary On
Versions: 1 2 3 4 5 6 7 8 9 10 11 12 13 14 15 16 17 18 19 20 21 22 23 24 25 26 27 28 29 30 31 32 33 34 35 36 37 38 39 40 41 42 43 44 45 46 47 48 49 50
828
ASUS41 KAKQ 291115
RWRAKQ

REGIONAL WEATHER ROUNDUP
NATIONAL WEATHER SERVICE WAKEFIELD VA
700 AM EDT SUN MAY 29 2016

Note: "fair" indicates few or no clouds below 12,000 feet with no
significant weather and/or obstructions to visibility. * = Denotes
station may not report precipitation (e.g., rain,snow,etc.),
thunder or fog.

VAZ042-051-052>054-056-291200-
NORTHERN VIRGINIA

CITY           SKY/WX    TMP DP  RH WIND       PRES   REMARKS
WASH NATIONAL  PTSUNNY   68  63  84 CALM      30.16R
DULLES         PTSUNNY   67  62  84 S3        30.15R
FORT BELVOIR   FAIR      62  61  96 CALM      30.15R
QUANTICO       FAIR      66  63  90 NW3       30.16R
FREDERICKSBRG* FAIR      62  62 100 CALM      30.14S
STAFFORD*      FAIR      58  56  94 CALM      30.19S
WARRENTON      FAIR      63  58  86 CALM      30.15S
CULPEPER*      FAIR      62  62 100 CALM      30.16R FOG
MANASSAS*      SUNNY     63  63 100 CALM      30.15R
LEESBURG*      FAIR      64  64 100 CALM      30.16S
WINCHESTER     FAIR      64  61  88 CALM      30.14R
FRONT ROYAL*   FAIR      63  61  94 CALM      30.13S
LURAY*         FAIR      61  61 100 CALM      30.16S
$$

VAZ048-049-060>072-079>083-291200-
CENTRAL AND SOUTH CENTRAL VIRGINIA

CITY           SKY/WX    TMP DP  RH WIND       PRES   REMARKS
RICHMOND       PTSUNNY   65  64  97 CALM      30.14S
CHESTERFIELD*  FAIR      64  52  63 CALM      30.15S
PETERSBURG*    CLOUDY    63  63 100 CALM      30.14S
HANOVER        FAIR      63  59  87 CALM      30.16R
TAPPAHANNOCK*  FAIR      63  63 100 CALM      30.15S
QUINTON*       FAIR      62  61  97 CALM      30.14R
CHARLOTTSVILLE FAIR      64  61  90 S5        30.15R
GORDONSVILLE*  FAIR      61  61  99 CALM      30.15R
ORANGE*        FAIR      63  63 100 CALM      30.17R FOG
LOUISA*          N/A     63  63 100 CALM      30.15R FOG
BUMPASS*       FAIR      61  60  99 CALM      30.15S
FARMVILLE*     FAIR      65  65 100 CALM      30.14R
CREWE*         FAIR      62  62 100 CALM      30.15R
FORT PICKETT*  NOT AVBL
CHASE CITY*    PTSUNNY   67  66  94 CALM      30.14R
CLARKSVILLE*   FAIR      68  68 100 CALM      30.12S
SOUTH HILL*    FAIR      65  65  97 CALM      30.19S
LAWRENCEVILLE* FAIR      66  66  97 CALM      30.13S
EMPORIA*       CLOUDY    64  64 100 CALM      30.15R
$$

VAZ088>098-291200-
SOUTHEAST VIRGINIA

CITY           SKY/WX    TMP DP  RH WIND       PRES   REMARKS
NORFOLK        CLOUDY    71  69  93 SE3       30.13R FOG
VIRGINIA BEACH PTSUNNY   74  68  81 E6        30.13R FOG
NORFOLK NAVAL  FOG       71  69  93 E5        30.15R VSB 1/4
WEST POINT*    FAIR      63  62  97 CALM      30.16R
SALUDA*        FAIR      66  66  99 CALM      30.14R
NEWPORT NEWS   CLOUDY    69  68  96 CALM      30.14R FOG
LANGLEY AFB    PTSUNNY   70  70  99 SE5       30.13S
FORT EUSTIS    FAIR      68  63  84 CALM      30.12R
WILLIAMSBURG*  FAIR      68  66  94 CALM      30.15R
HR EXEC AP*    CLOUDY    70  66  88 CALM      30.15R
FRANKLIN*      FOG       67  66  98 CALM      30.14R VSB 1/2
US460-WAKEFLD  FOG       65  64  97 CALM      30.14R VSB<1/4
$$

VAZ020-022-025-037-045-291200-
WEST CENTRAL AND SOUTHWEST VIRGINIA

CITY           SKY/WX    TMP DP  RH WIND       PRES   REMARKS
STAUNTON*      FAIR      60  59  98 CALM      30.19S FOG
WAYNESBORO*    FAIR      63  59  88 CALM      30.18R
HOT SPRINGS VA CLOUDY    63  56  78 CALM      30.26S
LYNCHBURG      PTSUNNY   65  62  90 CALM      30.17R
DANVILLE       FAIR      66  64  93 CALM      30.14R
SOUTH BOSTON*  FAIR      65  64  95 CALM      30.14R
MARTINSVILLE   DRIZZLE   61  61 100 CALM      30.18S
ROANOKE        CLOUDY    66  61  84 CALM      30.19R
BLACKSBURG     CLOUDY    62  61  96 CALM      30.24R
DUBLIN*        MOCLDY    63  62  97 CALM      30.23R
MARION*        LGT RAIN  62  60  94 NE3       30.25R
HILLSVILLE*    CLOUDY    60  58  93 CALM      30.21S
RICHLANDS*     CLOUDY    66  62  86 CALM      30.22R
WISE*          FAIR      63  52  67 CALM      30.23R
ABINGDON*      LGT RAIN  65  59  80 E3        30.20R
$$

MDZ021>025-VAZ099-100-291200-
SOUTHERN MARYLAND AND THE DELMARVA PENINSULA

CITY           SKY/WX    TMP DP  RH WIND       PRES   REMARKS
PATUXENT RIVER MOSUNNY   64  62  93 CALM      30.15R
BAY BRIDGE APT PTSUNNY   68  66  94 CALM      30.15F
LEONARDTOWN    MOSUNNY   63  61  94 CALM      30.17R
DOVER          MOSUNNY   64  64 100 VRB1      30.15S
GEORGETOWN     MOSUNNY   63  61  93 CALM      30.17R
EASTON         SUNNY     66  66 100 CALM      30.20R
CAMBRIDGE        N/A    N/A N/A N/A CALM      30.15S
SALISBURY      FOG       64  63  96 CALM      30.16R VSB 1/2
OCEAN CITY     FOG       66  65  96 CALM      30.16S VSB 1/4
WALLOPS ISLAND CLOUDY    70  69  97 CALM      30.16S FOG
ACCOMACK*      PTSUNNY   70  68  94 SE3       30.15R
$$

NCZ012>017-030>032-291200-
NORTH CENTRAL AND EASTERN NORTH CAROLINA

CITY           SKY/WX    TMP DP  RH WIND       PRES   REMARKS
ROANOKE RAPIDS FAIR      64  64 100 CALM      30.12S FOG
RALEIGH        LGT RAIN  70  68  93 NE6       30.10S
ELIZABETH CITY PTSUNNY   72  71  97 E3        30.12S
AHOSKIE*       CLOUDY    65  65  98 CALM      30.12S FOG
EDENTON*       CLOUDY   N/A N/A N/A E5        30.12S
CURRITUCK*     PTSUNNY   73  73 100 E3        30.13S
KILL DEVIL HLS MOSUNNY   71  71  98 E5        30.11F
MANTEO         NOT AVBL
CAPE HATTERAS  MOSUNNY   77  73  87 SE10      30.10R
TARBORO*       CLOUDY    70  69  97 CALM      30.11S FOG
GOLDSBORO      LGT RAIN  72  72 100 NE8       30.06F
WASHINGTON     CLOUDY    70  70  99 NE5       30.09S FOG
GREENVILLE     CLOUDY    72  72 100 E5        30.11R FOG
NEW BERN       LGT RAIN  73  70  90 E5        30.08F
WILMINGTON     HVY RAIN  73  71  93 NE6       30.03S FOG
$$

VAZ048-291200-
ELSEWHERE

CITY           SKY/WX    TMP DP  RH WIND       PRES   REMARKS
HARRISBURG PA  PTSUNNY   70  60  70 SE6       30.13R
BALTIMORE      PTSUNNY   63  59  87 CALM      30.15S
ANNAPOLIS      CLOUDY    67  65  93 CALM      30.15R
ANDREWS AFB    FAIR      62  60  93 S1        30.15R
PHILADELPHIA   PTSUNNY   67  58  72 S3        30.17R
HENDERSON NC   CLOUDY    65  64  95 CALM      30.13R
GREENSBORO     LGT RAIN  67  64  90 N5        30.13R
ROCKY MOUNT    LGT RAIN  70  69  97 NE5       30.10S FOG
$$

VAZ100-291200-
MARINE

STATION/POSITION TIME  TEMP    WIND        PRES    WAVE   SWELL
                       AIR SEA DIR/SP/G            HT/PER HT/PER
                 (UTC) (F)     (DEG/KT/KT) (MB)    (FT/S) (FT/S)
BRANDYWINE LGT   1000   64     180/  7/  7 1021.3R
CAPE MAY NJ      1000   61 67  100/  2/  3 1021.1R
LEWES DE         1000   65 64  170/  4/  7 1021.0R
15NM E FENWICK I 1050   64 63              1021.3R   2/ 8
OCEAN-CITY-INLET 1000   63 58  180/  2/  2 1021.4R
WACHAPREAGUE VA  1000   70 75  140/  1/  3 1020.3R
THOMAS POINT MD  1100   68 67   CALM  /  1 1022.4R
GOOSES REEF MD   1100   68 68  240/  2/  4 1021.9R   0
COVE POINT MD    1000   67     190/  5/  6 1021.2R
SOLOMONS ISLAND  1000   66 67   CALM  /  1   N/A
BISHOPS HEAD MD  1000   69 73  110/  6/  7 1020.7R
PINEY POINT MD   1000          140/  4/  4   N/A
POTOMAC MD       1100   69 70   70/  4/  4 1019.9R   0
CAMBRIDGE MD     1000   64 68  110/  1/  2 1020.0R
LEWISETTA VA     1000   68 65  120/  3/  4 1020.3R
RAPPAHANNOCK LGT 1000          130/  7/  8 1020.9R
STINGRAY PT      1100   70 69   CALM  /  2 1021.0R   0
YORK RVR RNG VA  1000   70     140/  4/  5 1019.7R
YORKTOWN VA      1000   69 71     CALM     1019.9R
JAMESTOWN VA     1100   71 74   80/  2/  4   N/A     0
DOMINION TERM VA 1000   70      80/  5/  6 1020.1R
KIPTOPEKE VA     1000      69  100/  6/  8   N/A
CHES BAY BRIDGE  1000   69 66  110/  5/  6 1020.2R
CAPE HENRY VA    1000   69     120/  5/  6   N/A
CHESAPEAKE LGHT  1000   70     100/ 10/ 11 1021.0R
WILLOUBY STN VA  1000   69     100/  6/  7 1021.1R
CAPE HENRY BUOY  1012      68                N/A     3/ 8
1ST LANDING BUOY 1100   69 69   90/  6/  8 1020.5R   1/ 5
CAPE CHARLES BUO 1026      68                N/A     3/ 8   2/ 8
OFFSHORE WE BUOY 1021      69                N/A     3/ 8   3/ 8
64NM E OF VA BCH 1050   68 64  110/  4/  4 1020.6R   4/ 8   3/ 8
DUCK PIER NC     1000   69 61  120/  5/  5 1019.3R
44100 DUCK FRF   1024      69                N/A     3/ 8
44056 DUCK FRF   1011      67                N/A     2/ 8
OREGON INLET NC  1000   70 72   80/  3/  4 1019.6R
HATTERAS NC      1000   76 76  120/  6/ 10 1018.6R
DIAMOND SHLS NC  1050   78 78  130/ 16/ 19 1018.8R   5/ 8   2/ 8
CAPE LOOKOUT NC1F1C2F2C3F3C4F4C5F5C6F6C7F7C8M1C9!



USA.gov is the U.S. government's official web portal to all federal, state and local government web resources and services.